Weather History for Brunswick, GA

Change the Weather History Date:

Saturday, January 29, 2011

  Actual Average Record
Temperature  
Mean Temperature 53 °F -  
Max Temperature 70 °F 64 °F 82 °F (1957)
Min Temperature 36 °F 39 °F 15 °F (1986)
Degree Days  
Heating Degree Days 12    
Growing Degree Days 3 (Base 50)    
Moisture  
Dew Point 40 °F    
Average Humidity 66    
Maximum Humidity 100    
Minimum Humidity 27    
Precipitation  
Precipitation 0.00 in - - ()
Sea Level Pressure  
Sea Level Pressure 30.10 in    
Wind  
Wind Speed 5 mph (WSW)    
Max Wind Speed 9 mph    
Max Gust Speed -    
Visibility 10 miles    
Events      
Averages and records for this station are not official NWS values.
T = Trace of Precipitation, MM = Missing Value Source: NWS Daily Summary

Daily Weather History Graph

Daily Weather History Graph

Search for Another Location

Airport:

Trip Planner

Search our weather history database for the weather conditions in past years. The results will help you decide how hot, cold, wet, or windy it might be!

Date:

Astronomy

Jan. 29, 2011 Rise Set
Actual Time 7:20 AM EST 5:58 PM EST
Civil Twilight 6:54 AM EST 6:23 PM EST
Nautical Twilight 6:25 AM EST 6:52 PM EST
Astronomical Twilight 5:56 AM EST 7:21 PM EST
Moon 3:47 AM EST (1/29) 2:02 PM EST (1/29)
Length of Visible Light 11h 29m
Length of Day
10h 38m
Waning Crescent, 18% of the Moon is Illuminated
Jan 29
Waning Crescent
Feb 2
New
Feb 11
First Quarter
Feb 18
Full
Feb 24
Last Quarter

Hourly Weather History & Observations

Time (EST) Temp. Windchill Dew Point Humidity Pressure Visibility Wind Dir Wind Speed Gust Speed Precip Events Conditions
12:00 AM 48.2 °F - 40.6 °F 75% 30.05 in 10.0 mi West 6.9 mph - N/A   Clear
12:20 AM 47.7 °F - 40.5 °F 76% 30.05 in 10.0 mi West 6.9 mph - N/A   Clear
12:40 AM 47.5 °F - 41.0 °F 78% 30.05 in 10.0 mi WSW 6.9 mph - N/A   Clear
1:00 AM 48.0 °F - 41.4 °F 78% 30.05 in 10.0 mi West 8.1 mph - N/A   Clear
1:20 AM 47.5 °F - 41.2 °F 79% 30.05 in 10.0 mi West 6.9 mph - N/A   Clear
1:40 AM 47.7 °F - 41.4 °F 79% 30.05 in 10.0 mi West 6.9 mph - N/A   Clear
2:00 AM 47.1 °F - 41.0 °F 79% 30.05 in 10.0 mi West 5.8 mph - N/A   Clear
2:20 AM 47.7 °F - 41.0 °F 78% 30.06 in 10.0 mi West 4.6 mph - N/A   Clear
2:40 AM 47.5 °F - 41.0 °F 78% 30.06 in 10.0 mi West 4.6 mph - N/A   Clear
3:00 AM 47.1 °F - 40.6 °F 78% 30.06 in 10.0 mi West 4.6 mph - N/A   Clear
3:20 AM 44.8 °F 41.6 °F 40.1 °F 84% 30.06 in 10.0 mi West 5.8 mph - N/A   Clear
3:40 AM 45.7 °F 43.4 °F 40.8 °F 83% 30.06 in 10.0 mi West 4.6 mph - N/A   Clear
4:00 AM 43.9 °F 42.3 °F 39.9 °F 86% 30.06 in 10.0 mi West 3.5 mph - N/A   Clear
4:20 AM 42.1 °F - 39.9 °F 92% 30.07 in 10.0 mi Calm Calm - N/A   Clear
4:40 AM 42.8 °F 40.1 °F 39.9 °F 90% 30.07 in 10.0 mi WSW 4.6 mph - N/A   Clear
5:00 AM 40.1 °F - 39.4 °F 97% 30.07 in 10.0 mi Calm Calm - N/A   Clear
5:20 AM 39.4 °F - 38.7 °F 97% 30.08 in 10.0 mi Calm Calm - N/A   Clear
5:40 AM 39.6 °F - 39.2 °F 99% 30.08 in 10.0 mi Calm Calm - N/A   Clear
6:00 AM 39.7 °F - 39.2 °F 98% 30.10 in 10.0 mi Calm Calm - N/A   Clear
6:20 AM 39.0 °F - 38.1 °F 97% 30.11 in 10.0 mi Calm Calm - N/A   Clear
6:40 AM 37.9 °F - 37.6 °F 99% 30.11 in 7.0 mi Calm Calm - N/A   Clear
7:00 AM 36.7 °F - 36.7 °F 100% 30.11 in 0.8 mi Calm Calm - N/A   Unknown
7:20 AM 36.9 °F - 36.7 °F 99% 30.12 in 0.2 mi Calm Calm - N/A   Unknown
7:40 AM 37.4 °F - 37.4 °F 100% 30.13 in 10.0 mi Calm Calm - N/A   Clear
8:00 AM 37.6 °F - 37.6 °F 100% 30.13 in 7.0 mi Calm Calm - N/A   Clear
8:20 AM 41.0 °F - 41.0 °F 100% 30.14 in 10.0 mi Calm Calm - N/A   Clear
8:40 AM 44.6 °F - 42.8 °F 93% 30.14 in 10.0 mi Calm Calm - N/A   Clear
9:00 AM 47.1 °F - 42.3 °F 83% 30.15 in 10.0 mi West 3.5 mph - N/A   Clear
9:20 AM 49.1 °F - 42.4 °F 78% 30.15 in 10.0 mi Calm Calm - N/A   Clear
9:40 AM 51.8 °F - 42.8 °F 71% 30.16 in 10.0 mi Calm Calm - N/A   Clear
10:00 AM 53.6 °F - 42.8 °F 67% 30.16 in 10.0 mi Calm Calm - N/A   Clear
10:20 AM 57.7 °F - 42.1 °F 56% 30.16 in 10.0 mi Calm Calm - N/A   Clear
10:40 AM 59.7 °F - 41.0 °F 50% 30.16 in 10.0 mi Calm Calm - N/A   Clear
11:00 AM 61.2 °F - 39.7 °F 45% 30.16 in 10.0 mi Calm Calm - N/A   Clear
11:20 AM 62.8 °F - 37.4 °F 39% 30.16 in 10.0 mi Calm Calm - N/A   Clear
11:40 AM 64.4 °F - 36.7 °F 36% 30.15 in 10.0 mi WSW 4.6 mph - N/A   Clear
12:00 PM 65.3 °F - 36.9 °F 35% 30.14 in 10.0 mi SW 6.9 mph - N/A   Clear
12:20 PM 66.6 °F - 36.5 °F 33% 30.13 in 10.0 mi West 4.6 mph - N/A   Clear
12:40 PM 66.6 °F - 37.4 °F 34% 30.13 in 10.0 mi SW 9.2 mph - N/A   Clear
1:00 PM 66.7 °F - 37.6 °F 34% 30.12 in 10.0 mi SSW 5.8 mph - N/A   Clear
1:20 PM 67.6 °F - 37.4 °F 33% 30.11 in 10.0 mi WSW 6.9 mph - N/A   Clear
1:40 PM 69.1 °F - 37.2 °F 31% 30.09 in 10.0 mi West 3.5 mph - N/A   Clear
2:00 PM 68.9 °F - 36.5 °F 30% 30.08 in 10.0 mi NNW 9.2 mph - N/A   Clear
2:20 PM 70.2 °F - 35.8 °F 28% 30.08 in 10.0 mi West 9.2 mph - N/A   Clear
2:40 PM 70.5 °F - 35.6 °F 28% 30.08 in 10.0 mi NW 8.1 mph - N/A   Clear
3:00 PM 70.0 °F - 35.4 °F 28% 30.08 in 10.0 mi West 8.1 mph - N/A   Clear
3:20 PM 69.8 °F - 35.2 °F 28% 30.08 in 10.0 mi NW 8.1 mph - N/A   Clear
3:40 PM 70.0 °F - 34.0 °F 27% 30.08 in 10.0 mi WSW 9.2 mph - N/A   Clear
4:00 PM 70.3 °F - 34.5 °F 27% 30.08 in 10.0 mi SSW 6.9 mph - N/A   Clear
4:20 PM 66.2 °F - 42.8 °F 43% 30.08 in 10.0 mi SSE 8.1 mph - N/A   Clear
4:40 PM 64.8 °F - 42.8 °F 45% 30.09 in 10.0 mi South 9.2 mph - N/A   Clear
5:00 PM 63.1 °F - 43.3 °F 48% 30.09 in 10.0 mi South 9.2 mph - N/A   Clear
5:20 PM 61.5 °F - 44.4 °F 53% 30.09 in 10.0 mi SSE 5.8 mph - N/A   Clear
5:40 PM 60.1 °F - 45.5 °F 59% 30.10 in 10.0 mi South 5.8 mph - N/A   Clear
6:00 PM 58.3 °F - 46.0 °F 64% 30.10 in 10.0 mi South 8.1 mph - N/A   Clear
6:20 PM 57.0 °F - 46.0 °F 67% 30.11 in 10.0 mi South 5.8 mph - N/A   Clear
6:40 PM 56.1 °F - 46.0 °F 69% 30.11 in 10.0 mi South 6.9 mph - N/A   Clear
7:00 PM 55.0 °F - 46.4 °F 73% 30.12 in 10.0 mi South 5.8 mph - N/A   Clear
7:20 PM 53.8 °F - 46.0 °F 75% 30.12 in 10.0 mi South 3.5 mph - N/A   Clear
7:40 PM 50.9 °F - 44.6 °F 79% 30.13 in 10.0 mi Calm Calm - N/A   Clear
8:00 PM 53.6 °F - 45.0 °F 73% 30.13 in 10.0 mi South 3.5 mph - N/A   Clear
8:20 PM 53.1 °F - 45.1 °F 74% 30.12 in 10.0 mi SSW 3.5 mph - N/A   Clear
8:40 PM 51.1 °F - 44.4 °F 78% 30.13 in 10.0 mi Calm Calm - N/A   Clear
9:00 PM 48.4 °F - 44.2 °F 86% 30.13 in 10.0 mi Calm Calm - N/A   Clear
9:20 PM 47.7 °F - 44.4 °F 89% 30.13 in 10.0 mi Calm Calm - N/A   Clear
9:40 PM 47.1 °F - 44.1 °F 89% 30.13 in 10.0 mi Calm Calm - N/A   Clear
10:00 PM 46.4 °F - 44.1 °F 92% 30.13 in 10.0 mi Calm Calm - N/A   Clear
10:20 PM 46.6 °F - 44.6 °F 93% 30.14 in 10.0 mi Calm Calm - N/A   Clear
10:40 PM 44.6 °F - 42.8 °F 93% 30.14 in 10.0 mi Calm Calm - N/A   Clear
11:00 PM 44.6 °F - 42.8 °F 93% 30.14 in 10.0 mi Calm Calm - N/A   Clear
11:20 PM 43.2 °F - 42.8 °F 99% 30.13 in 10.0 mi Calm Calm - N/A   Clear
11:40 PM 43.7 °F - 42.6 °F 96% 30.13 in 10.0 mi Calm Calm - N/A   Clear